Location: Guadanolo
(41.9167°N, 12.9333°E)
Time: 14:10:29
(UTC+00:00)

BREEZE M DEB (TANK) - Pass Details

Date: 16 September 2019
Orbit: 282 x 14544 km, 49.5° (Epoch: 17 October)

Event Time Altitude Azimuth Distance (km) Brightness Sun altitude
Rises 17:52:19 0° 270° (W) 2,010 7.4 -7.4°
Reaches altitude 10° 17:54:11 10° 288° (WNW) 1,117 5.6 -7.7°
Maximum altitude 17:55:57 24° 349° (N) 705 3.2 -8.1°
Drops below altitude 10° 17:58:23 10° 49° (NE) 1,552 4.3 -8.5°
Enters shadow 18:00:12 - 59° (ENE) 2,452 5.2 -8.8°
